Location: Hamburg
(53.5554°N, 9.9941°E)
Time: 03:43:07
(UTC+02:00)

ISS - Pass Details

Date: 11 May 2021
Orbit: 417 x 422 km, 51.6° (Epoch: 15 June)

Event Time Altitude Azimuth Distance (km) Brightness Sun altitude
Exits shadow 03:36:06 10° 267° (W) 1,524 -1.3 -12.5°
Reaches altitude 10° 03:36:08 10° 267° (W) 1,509 -1.3 -12.5°
Maximum altitude 03:39:29 61° 186° (S) 485 -3.7 -12.2°
Drops below altitude 10° 03:42:50 10° 106° (ESE) 1,510 -0.7 -11.9°
Sets 03:44:57 0° 103° (ESE) 2,374 0.4 -11.7°
